Regional Weather Roundup
Issued by NWS

Home | Current Version | Previous Version | Graphics & Text | Print | Product List | Glossary Off
Versions: 1 2 3 4 5 6 7 8 9 10 11 12 13 14 15 16 17 18 19 20 21 22 23 24 25 26 27 28 29 30 31 32 33 34 35 36 37 38 39 40 41 42 43 44 45 46 47 48 49 50

541
ASUS43 KMKX 290900
RWRWI

WISCONSIN REGIONAL WEATHER ROUNDUP
NATIONAL WEATHER SERVICE MILWAUKEE/SULLIVAN WI
400 AM CDT MON MAY 29 2017

NOTE: "FAIR" INDICATES FEW OR NO CLOUDS BELOW 12,000 FEET WITH NO
SIGNIFICANT WEATHER AND/OR OBSTRUCTIONS TO VISIBILITY.

WIZ001-002-006>008-014>016-023>028-291000-
NORTHWEST WISCONSIN

CITY           SKY/WX    TMP DP  RH WIND       PRES   REMARKS
SUPERIOR ARPT  NOT AVBL
ASHLAND        CLOUDY    51  48  89 SW9       29.61F
HAYWARD        CLOUDY    51  47  86 SW3       29.65F
SIREN          CLOUDY    52  48  88 W7        29.68S
CUMBERLAND     LGT RAIN  52  46  82 W10       29.68S
RICE LAKE      CLOUDY    51  47  86 W5        29.69S
CHETEK         CLOUDY    52  48  86 NW3       29.68S
LADYSMITH      PTCLDY    50  47  90 SW5       29.68S
EAU CLAIRE     NOT AVBL
MENOMONIE      MOCLDY    53  48  85 W5        29.69S
NEW RICHMOND   CLOUDY    52  49  91 W8        29.70S
OSCEOLA        CLOUDY    53  53 100 W8        29.73S
$$

WIZ003>005-009-010-017-018-291000-
NORTH CENTRAL WISCONSIN

CITY           SKY/WX    TMP DP  RH WIND       PRES   REMARKS
MANITOWISH WTR MOCLDY    46  46 100 SW6       29.62F
ARBOR VITAE    CLEAR     51  49  92 W6        29.63S
WOODRUFF       CLEAR     51  49  92 W6        29.63S
RHINELANDER    PTCLDY    50  47  89 W9        29.65S
EAGLE RIVER    CLEAR     46  45  99 SW5       29.63R
LAND O LAKES   MOCLDY    49  47  95 CALM      29.63S
PHILLIPS       CLOUDY    48  47  95 SW5       29.65S
TOMAHAWK       CLOUDY    49  46  87 W5        29.66S
MEDFORD        MOCLDY    50  46  86 W6        29.67S
MERRILL        CLOUDY    52  48  87 W6        29.66F
$$

WIZ029-030-035-036-043>047-291000-
CENTRAL WISCONSIN

CITY           SKY/WX    TMP DP  RH WIND       PRES   REMARKS
WAUSAU         CLEAR     52  47  83 W10       29.66S
MOSINEE        CLOUDY    50  50 100 SW6       29.69S
MARSHFIELD     CLOUDY    51  46  83 W6        29.67F
STEVENS POINT  PTCLDY    51  48  90 SW3       29.69S
WAUPACA        PTCLDY    55  49  82 CALM      29.69F
WAUTOMA        CLOUDY    51  49  92 CALM      29.70F
WISC RAPIDS    MOCLDY    52  48  86 SW7       29.70S
CAMP DOUGLAS   CLEAR     43  43 100 E3        29.71S FOG
$$

WIZ011>013-019>022-031-037>040-048>050-291000-
NORTHEAST WISCONSIN

CITY           SKY/WX    TMP DP  RH WIND       PRES   REMARKS
ANTIGO         CLOUDY    48  48  97 SW8       29.66F
SHAWANO        CLOUDY    55  49  79 SW3       29.67S
OCONTO         PTCLDY    51  47  86 SW6       29.65S
STURGEON BAY   CLEAR     54  49  83 SW7       29.66S
GREEN BAY      CLOUDY    55  49  80 SW5       29.67F
MANITOWOC      NOT AVBL
APPLETON       CLOUDY    54  45  71 SW6       29.68R
CLINTONVILLE   CLOUDY    54  46  76 SW5       29.68R
OSHKOSH        PTCLDY    53  47  79 SW3       29.68F
$$

WIZ032>034-041-042-053>061-291000-
SOUTHWEST WISCONSIN

CITY           SKY/WX    TMP DP  RH WIND       PRES   REMARKS
LA CROSSE      CLEAR     56  49  77 S3        29.72S
SPARTA         CLEAR     43  43 100 CALM      29.73S
VIROQUA        CLEAR     51  44  77 CALM      29.75R
BOSCOBEL       PTCLDY    53  47  79 SW5       29.75S
PRAIRIE DU CHI PTCLDY    54  45  73 CALM      29.76S
PLATTEVILLE    MOCLDY    54  47  76 SW5       29.77S
$$

WIZ056-057-062-063-064-067-068-291000-
SOUTH CENTRAL WISCONSIN

CITY           SKY/WX    TMP DP  RH WIND       PRES   REMARKS
REEDSBURG      CLEAR     50  48  90 W3        29.72S
BARABOO/DELLS  CLEAR     53  44  72 W7        29.72R
LONE ROCK      NOT AVBL
MINERAL POINT  PTCLDY    54  45  71 W6        29.75S
MADISON        CLEAR     58  45  62 VRB3      29.71S
MIDDLETON      CLEAR     56  46  67 W9        29.73S
WATERTOWN      CLEAR     48  48 100 CALM      29.71F
MONROE         CLEAR     57  45  62 W14       29.75S
JANESVILLE     CLEAR     55  46  71 SW6       29.74S
$$

WIZ051-052-058>065-066-070>072-291000-
SOUTHEAST WISCONSIN

CITY           SKY/WX    TMP DP  RH WIND       PRES   REMARKS
MILWAUKEE      CLEAR     58  49  72 SW9       29.73S
WAUKESHA       CLEAR     54  45  71 S8        29.74S
MILWAUKEE/TIMM   N/A     54  43  66 SW3       29.73S
RACINE         CLEAR     56  48  74 SW7       29.75S
KENOSHA        CLEAR     55  49  80 SW7       29.75R
FOND DU LAC    MOCLDY    54  46  74 S5        29.70F
SHEBOYGAN      PTCLDY    50  48  93 SW5       29.69F
WEST BEND      PTCLDY    52  46  82 SW5       29.71S
JUNEAU         CLEAR     51  48  88 CALM      29.72F
$$

LSZ147-162-291000-
LAKE SUPERIOR

STATION/POSITION TIME  TEMP    WIND        PRES    WAVE
                       AIR SEA DIR/SP/G            HT/PER
                 (UTC) (F)     (DEG/KT/KT) (MB)    (FT/S)
W MID LAKE BUOY  0750   41 37  200/  2/  4 1001.8F   0
DEVILS ISLAND    0800   47     240/ 16/ 18 1002.2F
PORT WING        0830   55     240/  8/ 13 1003.0S
SAXON HARBOR     0830   54     210/  7/ 11 1002.7S
$$

LMZ867-665-643>646-291000-
LAKE MICHIGAN

STATION/POSITION TIME  TEMP    WIND        PRES    WAVE
                       AIR SEA DIR/SP/G            HT/PER
                 (UTC) (F)     (DEG/KT/KT) (MB)    (FT/S)
CHAMBERS ISLAND  0840   53     200/  6/  9 1003.4S
N MID LAKE BUOY  0750   41 41  220/  4/  4 1004.5F   1/ 3
NORTHPORT PIER   0840   52     250/  3/  7 1003.4S
SISTER BAY       0806   54     260/  8/  9   N/A
KEWAUNEE LAKESHO 0830   56     260/  6/  9 1004.5R
SHEBOYGAN LAKESH 0800   58     250/  7/  8 1005.5F
PORT WASHINGTON  0830   58     270/  4/  6 1007.1S
ATWATER BUOY     0709   57     230/  8/  8 1006.7S
MILWAUKEE LAKESH 0830   61     230/ 10/ 12   N/A
S MID LAKE BUOY  0750   53 47  250/ 10/ 10 1007.4R   1
KENOSHA   LAKESH 0800   62     220/  8/ 11 1007.1
$$

TC  - TEMPERATURE IN CELSIUS
VSB - VISIBILITY IN STATUTE MILES
WCI - WIND CHILL INDEX
HX  - HEAT INDEX





USA.gov is the U.S. government's official web portal to all federal, state and local government web resources and services.